369  
ASUS41 KBOX 262211  
RWRBOX  
 
REGIONAL WEATHER ROUNDUP  
NATIONAL WEATHER SERVICE TAUNTON MA  
600 PM EDT WED JUL 26 2017  
 
NOTE: "FAIR" INDICATES FEW OR NO CLOUDS BELOW 12,000 FEET WITH NO  
SIGNIFICANT WEATHER AND/OR S TO VISIBILITY
.  
 
MAZALL-262300-  
EASTERN MASSACHUSETTS  
 
CITY SKY/WX TMP DP RH WIND PRES REMARKS
 
BOSTON FAIR 72 57 59 E14 30.12F  
BEVERLY FAIR 73 61 65 SE7 30.12F  
LAWRENCE FAIR 81 55 40 SE5 30.14S  
BEDFORD FAIR 77 49 37 SE13 30.11F  
BLUE HILL N/A 73 53 49 SE8 30.13F  
NORWOOD PTSUNNY 80 56 43 S5 30.11F  
MARSHFIELD FAIR 73 55 53 SE7 30.14S  
PLYMOUTH FAIR 74 58 57 S8 30.14F  
TAUNTON FAIR 76 58 53 SE9 30.12F  
NEW BEDFORD FAIR 73 59 61 S9 30.13F  

 
 
MAZALL-262300-  
CAPE COD AND THE ISLANDS  
 
CITY SKY/WX TMP DP RH WIND PRES REMARKS
 
FALMOUTH FAIR 72 59 64 S8 30.16S  
HYANNIS FAIR 70 62 76 S6 30.14F  
CHATHAM FAIR 69 57 65 S5 30.17F  
PROVINCETOWN FAIR 74 55 51 S8 30.15F  
NANTUCKET FAIR 66 59 78 S6 30.17S  
MARTHAS VNYRD FAIR 70 58 65 S8 30.16F  

 
 
MAZALL-262300-  
CENTRAL AND WESTERN MASSACHUSETTS  
 
CITY SKY/WX TMP DP RH WIND PRES REMARKS
 
WORCESTER PTSUNNY 74 52 46 S7 30.16F  
FITCHBURG PTSUNNY 80 53 39 SW8 30.13F  
ORANGE FAIR 77 54 44 W8 30.13F  
SPRINGFIELD MOSUNNY 79 55 43 SW10 30.12S  
WESTFIELD PTSUNNY 77 57 50 S8 30.13F  
NORTH ADAMS PTSUNNY 74 58 57 SW3 30.13F  
PITTSFIELD FAIR 72 56 57 SW10 30.14F  

 
 
RIZALL-262300-  
RHODE ISLAND  
 
CITY SKY/WX TMP DP RH WIND PRES REMARKS
 
PROVIDENCE FAIR 75 63 66 S10 30.14F  
NEWPORT FAIR 71 59 65 S8 30.15F  
BLOCK ISLAND FAIR 71 61 70 SW10 30.17S  
WESTERLY FAIR 73 58 59 SW9 30.16F  

 
 
CTZALL-262300-  
CONNECTICUT  
 
CITY SKY/WX TMP DP RH WIND PRES REMARKS
 
BRADLEY INTL PTSUNNY 77 56 48 SW8 30.13F  
HARTFORD FAIR 78 57 48 SW7 30.13F  
BRIDGEPORT FAIR 75 58 55 S6 30.16F  
DANBURY PTSUNNY 76 56 49 S6 30.17F  
GROTON FAIR 71 59 65 S8 30.15F  
NEW HAVEN FAIR 75 58 55 S7 30.16F  
CHESTER FAIR 73 55 53 SW7 30.17R  
MERIDEN FAIR 75 54 47 S9 30.15F  
WILLIMANTIC CLOUDY 79 60 52 SW10 30.14F  
OXFORD MOSUNNY 73 54 49 SW6 30.18F  

 
 
MEZ002-015-021-024-NHZ003-005-008-011-012-014-VTZ005-008-262300-  
NORTHERN NEW ENGLAND  
 
CITY SKY/WX TMP DP RH WIND PRES REMARKS
 
PORTLAND ME FAIR 73 54 51 S9 30.12F  
BANGOR ME FAIR 77 52 41 S15 30.10F  
CONCORD NH CLOUDY 79 54 41 S8 30.11F  
MANCHESTER NH FAIR 80 49 33 VRB6 30.10F  
NASHUA NH FAIR 80 54 40 VRB3 30.13S  
PORTSMOUTH NH MOSUNNY 76 52 43 SE8 30.11F  
JAFFREY NH FAIR 76 54 46 W8 30.15F  
KEENE NH FAIR 77 53 43 SW9 30.13F  
BURLINGTON VT PTSUNNY 76 57 51 S12 30.07F  
MT. WASHINGTON PTSUNNY 52 46 82 W15 N/A  

 
 
NYZ052-076-262300-  
EASTERN NEW YORK  
 
CITY SKY/WX TMP DP RH WIND PRES REMARKS
 
ALBANY PTSUNNY 75 57 53 S10 30.10F  
NEW YORK CITY PTSUNNY 75 56 51 S9 30.16F  

 
 
ANZALL-262300-  
MARINE OBSERVATIONS  
 
STATION/POSITION TIME TEMP WIND PRES VSBY WAVE
 
AIR SEA DIR/SP/G HT/PER  
(UTC) (F) (DEG/KT/KT) (MB) (MI) (FT/S)  
BOSTON BUOY 2150 67 66 120/ 6/ 6 1020.1F 2/ 7  
BUZZARDS BAY 2100 66 210/ 10/ 11 1021.8F  
NANTUCKET SOUND 2150 69 1021.0F 1/ 4  
MASS BAY-STELLWA 2104 66 63 130/ 6/ 8 1020.1F 2/ 8  
ISLE OF SHOALS 2100 66 150/ 12/ 12 1020.4F  
S OF BLOCK IS 2155 73 N/A 2/ 7  

 
   
.....................KEY......................
 
 
SKY/WX - SKY CONDITION/PRESENT WEATHER  
TMP - TEMPERATURE IN FAHRENHEIT  
DWPT - DEWPOINT IN FAHRENHEIT  
RH - RELATIVE HUMIDITY IN PERCENT  
WIND - DIRECTION AND SPEED IN MPH  
PRES - MEAN SEA LEVEL PRESSURE IN INCHES OF HG  
WCI - WIND CHILL INDEX  
VSB - VISIBILITY IN MILES  
HX - HEAT INDEX  
TC - TEMPERATURE IN CELSIUS  
VRB - VARIABLE WIND DIRECTION  
N/A - NOT AVAILABLE  
 
 
CLICK HERE TO GO TO PREVIOUS BULLETINS.

The Nexlab MA Page
The Nexlab RI Page
The Nexlab NH Page
The Nexlab CT Page Main Text Page